User: anonymous   Login
Location: Croydon
(51.3762°N, 0.0982°W)
Time: 21:58:54
(UTC+01:00)
Language:

VELOX 1 - Orbit

View from above orbital plane
View from above orbital plane
View from above satellite
View from above satellite

Ground track
Ground track

The orbit data is extracted from the following two-line orbital elements,

1 40057U 14034E   19146.45037469  .00000222  00000-0  38678-4 0  9999
2 40057  98.2313 269.0416 0010010 314.0456  45.9934 14.77651007264337
Epoch (UTC): 26 May 2019 10:48:32
Eccentricity: 0.0010010
inclination: 98.2313°
perigee height: 630 km
apogee height: 644 km
right ascension of ascending node: 269.0416°
argument of perigee: 314.0456°
revolutions per day: 14.77651007
mean anomaly at epoch: 45.9934°
orbit number at epoch: 26433

The dashed part of the orbit path shows where the satellite is in the earth's shadow,  

DLR